Location: Augustenthal
(51.7167°N, 10.2833°E)
Time: 18:44:45
(UTC+00:00)

Cosmos 724 - Pass Details

Date: 18 May 2021
Orbit: 848 x 947 km, 65.6° (Epoch: 20 June)

Event Time Altitude Azimuth Distance (km) Brightness Sun altitude
Exits shadow 22:46:12 19° 216° (SW) 2,072 5.8 -18.2°
Maximum altitude 22:50:49 86° 130° (SE) 952 4.4 -18.3°
Drops below altitude 10° 22:57:06 10° 41° (NE) 2,678 7.4 -18.4°
Sets 22:59:40 0° 42° (NE) 3,625 8.2 -18.4°
